Weather History for Renton, WA

Change the Weather History Date:

Saturday, August 3, 2013

  Actual Average Record
Temperature  
Mean Temperature 66 °F -  
Max Temperature 73 °F 76 °F 89 °F (1997)
Min Temperature 60 °F 57 °F 50 °F (2002)
Cooling Degree Days 2    
Growing Degree Days 16 (Base 50)    
Moisture  
Dew Point 58 °F    
Average Humidity 81    
Maximum Humidity 96    
Minimum Humidity 57    
Precipitation  
Precipitation 0.03 in - - ()
Sea Level Pressure  
Sea Level Pressure 30.12 in    
Wind  
Wind Speed 2 mph (NW)    
Max Wind Speed 8 mph    
Max Gust Speed -    
Visibility 8 miles    
Events Rain    
Averages and records for this station are not official NWS values.
T = Trace of Precipitation, MM = Missing Value Source: NWS Daily Summary

Daily Weather History Graph

Daily Weather History Graph

Search for Another Location

Airport:

Trip Planner

Search our weather history database for the weather conditions in past years. The results will help you decide how hot, cold, wet, or windy it might be!

Date:

Astronomy

Aug. 03, 2013 Rise Set
Actual Time 5:49 AM PDT 8:39 PM PDT
Civil Twilight 5:14 AM PDT 9:14 PM PDT
Nautical Twilight 4:28 AM PDT 10:00 PM PDT
Astronomical Twilight 3:34 AM PDT 10:53 PM PDT
Moon 3:00 AM PDT (8/3) 6:27 PM PDT (8/3)
Length of Visible Light 16h 00m
Length of Day
14h 49m
Waning Crescent, 9% of the Moon is Illuminated
Aug 3
Waning Crescent
Aug 6
New
Aug 14
First Quarter
Aug 20
Full
Aug 28
Last Quarter

Hourly Weather History & Observations

Time (PDT) Temp. Dew Point Humidity Pressure Visibility Wind Dir Wind Speed Gust Speed Precip Events Conditions
12:45 AM 60.8 °F 57.2 °F 88% 30.13 in 10.0 mi Calm Calm - N/A   Overcast
12:53 AM 61.0 °F 57.9 °F 90% 30.14 in 10.0 mi Calm Calm - N/A   Overcast
1:53 AM 61.0 °F 57.9 °F 90% 30.14 in 10.0 mi Calm Calm - N/A   Overcast
2:07 AM 60.8 °F 57.2 °F 88% 30.12 in 10.0 mi Calm Calm - N/A   Overcast
2:53 AM 61.0 °F 57.9 °F 90% 30.13 in 10.0 mi Calm Calm - N/A   Overcast
3:53 AM 60.1 °F 57.9 °F 93% 30.12 in 10.0 mi Calm Calm - N/A   Overcast
4:53 AM 61.0 °F 57.9 °F 90% 30.12 in 10.0 mi Calm Calm - N/A   Overcast
5:08 AM 60.8 °F 57.2 °F 88% 30.11 in 6.0 mi Calm Calm - N/A   Overcast
5:26 AM 60.8 °F 59.0 °F 94% 30.11 in 3.0 mi Calm Calm - N/A   Overcast
5:33 AM 60.8 °F 59.0 °F 94% 30.11 in 2.0 mi Calm Calm - N/A   Overcast
5:53 AM 60.1 °F 59.0 °F 96% 30.14 in 2.0 mi Calm Calm - 0.01 in Rain Light Rain
6:30 AM 60.8 °F 57.2 °F 88% 30.13 in 1.5 mi Calm Calm - 0.01 in Rain Light Rain
6:53 AM 60.1 °F 55.0 °F 83% 30.14 in 1.8 mi Calm Calm - 0.02 in   Haze
7:53 AM 61.0 °F 59.0 °F 93% 30.14 in 7.0 mi Calm Calm - N/A   Overcast
8:53 AM 62.1 °F 59.0 °F 90% 30.14 in 7.0 mi WNW 4.6 mph - N/A   Overcast
9:53 AM 63.0 °F 60.1 °F 90% 30.14 in 7.0 mi WNW 6.9 mph - N/A   Overcast
10:06 AM 62.6 °F 60.8 °F 94% 30.12 in 7.0 mi NW 6.9 mph - N/A   Overcast
10:53 AM 64.0 °F 60.1 °F 87% 30.14 in 10.0 mi NW 5.8 mph - N/A   Overcast
11:50 AM 66.2 °F 60.8 °F 83% 30.12 in 10.0 mi NW 4.6 mph - N/A   Overcast
11:53 AM 64.9 °F 60.1 °F 84% 30.14 in 10.0 mi NW 4.6 mph - N/A   Overcast
12:53 PM 68.0 °F 59.0 °F 73% 30.13 in 10.0 mi NW 8.1 mph - N/A   Overcast
1:53 PM 69.1 °F 57.9 °F 68% 30.14 in 10.0 mi NW 5.8 mph - N/A   Overcast
2:53 PM 70.0 °F 57.9 °F 65% 30.12 in 10.0 mi NNW 5.8 mph - N/A   Overcast
3:53 PM 72.0 °F 57.0 °F 59% 30.11 in 10.0 mi NW 8.1 mph - N/A   Scattered Clouds
4:53 PM 72.0 °F 57.0 °F 59% 30.09 in 10.0 mi NW 5.8 mph - N/A   Mostly Cloudy
5:53 PM 73.0 °F 57.0 °F 57% 30.08 in 10.0 mi NW 6.9 mph - N/A   Overcast
6:53 PM 73.0 °F 57.0 °F 57% 30.07 in 10.0 mi NW 3.5 mph - N/A   Partly Cloudy
7:53 PM 71.1 °F 57.0 °F 61% 30.07 in 10.0 mi NW 5.8 mph - N/A   Mostly Cloudy
8:53 PM 70.0 °F 57.9 °F 65% 30.07 in 10.0 mi Calm Calm - N/A   Overcast
9:53 PM 68.0 °F 57.0 °F 68% 30.08 in 10.0 mi NNW 5.8 mph - N/A   Overcast
10:53 PM 66.0 °F 57.0 °F 73% 30.08 in 10.0 mi WNW 5.8 mph - N/A   Clear
11:53 PM 64.9 °F 57.9 °F 78% 30.08 in 10.0 mi NW 5.8 mph - N/A   Clear